Starlink 11466

operational
NORAD ID: 62220 Int'l Des: 2024-231 Owner: SPXS Country: US Constellation: starlink
LEOCIRCULAR

About Starlink 11466

Description loading...

Live Position

Loading 3D Globe...

Upcoming Passes

Altitude History

Altitude vs Time

uPlot chart will show altitude changes over time

Two-Line Element Set

1 62220U 24231C 25308.60880434 .00210186 00000-0 16917-2 0 9999
2 62220 53.1572 358.0533 0001292 80.0884 280.0279 15.69773248 53767
Epoch: Nov 4, 2025 • Age: 13 hours

Current Status

Altitude 361.3 km
Velocity 7.70 km/s
Sub-Earth Point 36.66°N, 46.22°E
Launch Date Dec 5, 2024
Age 0.9 years
Type internet

Technical Details

Classification Payload
Mass 960.00 kg
Dry Mass 910.00 kg
Total Mass 960.00 kg
Length 0.30 m
Diameter 4.10 m
Span 29.00 m
Shape Box + pan
Manufacturer SPXS
Bus Type Starlink V2MD
Phase Status In Orbit
Owner/State SPXS/US

Large Constellations

Loading constellations...